Home   Weather   Thompson   Past weeks

Flag for Canada Past Weather in Thompson, Manitoba, Canada — Yesterday and Last 2 Weeks

Now
7 °F

Scattered clouds.


Feels Like: 0 °F
Forecast: -1 / 24 °F
Wind: 3 mph from East

Location: Thompson

Current Time: Apr 24, 2017 at 8:41:14 am

Latest Report: Apr 24, 2017 at 8:00 am


Visibility: 15 mi

Pressure: 30.34 "Hg

Humidity: 56%

Dew Point: -6 °F

Location of ThompsonLocation

Past Weather in Thompson — Graph

°F

Thompson Temperature Yesterday

Maximum temperature yesterday: 21 °F (at 3:00 pm)
Minimum temperature yesterday: -9 °F (at 6:00 am)
Average temperature yesterday: 9 °F

High & Low Weather Summary for the Past Weeks

 TemperatureHumidityPressure
High46 °F (Apr 20, 7:00 pm)100% (Apr 20, 6:00 am)30.55 "Hg (Apr 20, 6:00 am)
Low-9 °F (Apr 17, 6:00 am)25% (Apr 12, 6:00 pm)30.01 "Hg (Apr 9, 7:00 am)
Average20 °F59%30.28 "Hg
* Reported Apr 9 7:00 am — Apr 24 7:00 am, Thompson, Weather by CustomWeather, © 2017

Note: Actual official high and low records may vary slightly from our data, if they occured in-between our weather recording intervals... More about our weather records

Advertising

Thompson Weather History for the Previous 24 Hours

Scroll right to see more
 ConditionsComfort  
Time TempWeatherWind HumidityBarometerVisibility
7:00 am
Mon, Apr 24
1 °FScattered clouds.5 mph65%30.33 "Hg15 mi
6:00 am0 °FPassing clouds.2 mph65%30.33 "Hg15 mi
5:00 am-2 °FClear.2 mph65%30.33 "Hg15 mi
4:00 am1 °FClear.No wind60%30.33 "Hg15 mi
3:00 am1 °FClear.3 mph60%30.33 "Hg15 mi
2:00 am5 °FClear.3 mph55%30.34 "Hg15 mi
1:00 am7 °FClear.3 mph51%30.33 "Hg15 mi
12:00 am9 °FClear.5 mph51%30.33 "Hg15 mi
11:00 pm
Sun, Apr 23
10 °FClear.6 mph47%30.34 "Hg15 mi
10:00 pm12 °FClear.7 mph44%30.33 "Hg15 mi
9:00 pm16 °FClear.6 mph37%30.32 "Hg15 mi
8:00 pm18 °FSunny.7 mph38%30.32 "Hg15 mi
7:00 pm19 °FPassing clouds.8 mph38%30.32 "Hg15 mi
6:00 pm21 °FPassing clouds.7 mph32%30.32 "Hg15 mi
5:00 pm21 °FPassing clouds.10 mph32%30.32 "Hg15 mi
4:00 pm21 °FPassing clouds.13 mph35%30.33 "Hg15 mi
3:00 pm21 °FPassing clouds.6 mph32%30.34 "Hg15 mi
2:00 pm19 °FPassing clouds.10 mph38%30.35 "Hg15 mi
1:00 pm19 °FScattered clouds.12 mph38%30.36 "Hg15 mi
12:00 pm18 °FScattered clouds.12 mph38%30.37 "Hg15 mi
11:00 am14 °FScattered clouds.6 mph44%30.38 "Hg15 mi
10:00 am12 °FPassing clouds.6 mph44%30.40 "Hg15 mi
9:00 am9 °FPassing clouds.5 mph51%30.40 "Hg15 mi
8:00 am0 °FPassing clouds.No wind65%30.40 "Hg15 mi
Weather by CustomWeather, © 2017

See weather overviewHow to use our weather pages